Terug naar catalogus

CZ-6A DEB

ActiefPO
NORAD 61393·DEBRIS·🇨🇳 China

Gelanceerd Aug 6, 2024 vanaf Taiyuan Satellite Launch Center

Loading…

Volgende Passages (komende 24 uur)

TLE

VersSource: Space-Track

Epoch: Sep 14, 2026, 11:43 UTC

1 61393U 24140XJ  26257.48842403  .00001623  00000-0  80448-3 0  9997
2 61393  88.9908 265.0738 0082117 297.0046  62.2775 14.15088597104343

Volg CZ-6A DEB in realtime met AllMySat

Download on the App Store